Observations for Trim Market St
| Time | AQI | Temp °C | Hum % | Pres Pa | CO μg/m³ | H₂S μg/m³ | NO μg/m³ | NO₂ μg/m³ | O₃ μg/m³ | SO₂ μg/m³ | PM1 μg/m³ | PM2.5 μg/m³ | PM10 μg/m³ |
|---|---|---|---|---|---|---|---|---|---|---|---|---|---|
| Monday 17 August 2026 | |||||||||||||
| 01:13 | 2 | 19.1 | 79 | 2,147,483,647 | 0 | 0 | 1.76 | 1.85 | 49.04 | 0 | 0 | 0.75 | 2.94 |
| 01:12 | 2 | 19.2 | 79 | 2,147,483,647 | 0 | 0 | 1.75 | 1.35 | 45.75 | 0 | 0 | 0.74 | 2.94 |
| 01:10 | 2 | 19.2 | 79 | 2,147,483,647 | 0 | 0 | 1.66 | 1.5 | 50.39 | 0 | 0 | 0.74 | 2.94 |
| 01:09 | 2 | 19.2 | 79 | 2,147,483,647 | 0 | 0 | 1.79 | 1.44 | 45.87 | 0 | 0 | 0.73 | 2.95 |
| 01:08 | 2 | 19.2 | 79 | 2,147,483,647 | 0 | 0 | 1.77 | 1.44 | 45.84 | 0 | 0 | 0.73 | 2.95 |
| 01:06 | 2 | 19.2 | 79 | 2,147,483,647 | 0 | 0 | 1.94 | 1.22 | 43.69 | 0 | 0 | 1.2 | 3.53 |
| 01:03 | 2 | 19.2 | 80 | 2,147,483,647 | 0 | 0 | 1.96 | 1.15 | 44.91 | 0 | 0 | 1.19 | 3.54 |
| 00:54 | 2 | 19.3 | 80 | 2,147,483,647 | 0.01 | 0 | 1.98 | 0.81 | 43.42 | 0 | 0.71 | 1.65 | 4.12 |
| 00:53 | 2 | 19.3 | 80 | 2,147,483,647 | 0.01 | 0 | 1.94 | 0.84 | 41.77 | 0 | 0.71 | 2.12 | 4.69 |
| 00:52 | 2 | 19.3 | 80 | 2,147,483,647 | 0.01 | 0 | 1.81 | 0.79 | 53.44 | 0 | 0 | 2.12 | 4.69 |
| 00:48 | 2 | 19.4 | 80 | 2,147,483,647 | 0.03 | 0 | 1.78 | 0.69 | 51.45 | 0 | 1.43 | 3.06 | 6.39 |
| 00:47 | 2 | 19.4 | 80 | 2,147,483,647 | 0.03 | 0 | 1.87 | 0.73 | 50.41 | 0 | 2.14 | 3.06 | 5.83 |
| 00:46 | 2 | 19.4 | 80 | 2,147,483,647 | 0.02 | 0 | 1.88 | 0.57 | 46.36 | 0 | 1.43 | 2.12 | 4.69 |
| 00:45 | 2 | 19.4 | 80 | 2,147,483,647 | 0.03 | 0 | 1.94 | 0.68 | 47.88 | 0 | 0.71 | 2.12 | 4.69 |
| 00:44 | 2 | 19.4 | 80 | 2,147,483,647 | 0.03 | 0 | 1.83 | 0.58 | 48.75 | 0 | 0 | 2.12 | 4.69 |
| 00:43 | 2 | 19.4 | 80 | 2,147,483,647 | 0.03 | 0 | 1.79 | 0.6 | 48.48 | 0 | 1.43 | 3.06 | 6.39 |
| 00:42 | 2 | 19.4 | 80 | 2,147,483,647 | 0.02 | 0 | 1.79 | 0.58 | 43.99 | 0 | 1.43 | 2.59 | 5.83 |
| 00:41 | 2 | 19.4 | 80 | 2,147,483,647 | 0.02 | 0 | 1.8 | 0.77 | 50.36 | 0 | 1.43 | 2.6 | 5.25 |
| 00:40 | 2 | 19.4 | 80 | 2,147,483,647 | 0.03 | 0 | 1.8 | 0.75 | 48.29 | 0 | 0.71 | 2.12 | 4.69 |
| 00:39 | 2 | 19.4 | 80 | 2,147,483,647 | 0.02 | 0 | 1.87 | 0.64 | 49.44 | 0 | 0.71 | 2.12 | 5.25 |